TimeEDT,TemperatureF,Dew PointF,Humidity,Sea Level PressureIn,VisibilityMPH,Wind Direction,Wind SpeedMPH,Gust SpeedMPH,PrecipitationIn,Events,Conditions,WindDirDegrees,DateUTC
12:35 AM,46.4,37.4,71,30.24,10.0,Calm,Calm,-,N/A,,Clear,0,2012-10-12 04:35:00
12:55 AM,46.4,37.4,71,30.24,10.0,SSW,3.5,-,N/A,,Clear,200,2012-10-12 04:55:00
1:15 AM,46.4,37.4,71,30.23,10.0,South,4.6,-,N/A,,Clear,190,2012-10-12 05:15:00
1:35 AM,44.6,37.4,76,30.24,10.0,Calm,Calm,-,N/A,,Clear,0,2012-10-12 05:35:00
1:55 AM,42.8,37.4,81,30.24,10.0,South,3.5,-,N/A,,Scattered Clouds,180,2012-10-12 05:55:00
2:15 AM,42.8,37.4,81,30.22,10.0,SSE,4.6,-,N/A,,Scattered Clouds,160,2012-10-12 06:15:00
2:35 AM,42.8,39.2,87,30.23,10.0,SE,3.5,-,N/A,,Scattered Clouds,140,2012-10-12 06:35:00
3:15 AM,41.0,37.4,87,30.22,10.0,ESE,4.6,-,N/A,,Scattered Clouds,120,2012-10-12 07:15:00
3:35 AM,44.6,39.2,81,30.22,10.0,SSE,4.6,-,N/A,,Clear,160,2012-10-12 07:35:00
3:55 AM,46.4,39.2,76,30.22,10.0,SSE,3.5,-,N/A,,Clear,160,2012-10-12 07:55:00
4:15 AM,44.6,39.2,81,30.22,10.0,Calm,Calm,-,N/A,,Clear,0,2012-10-12 08:15:00
4:35 AM,42.8,39.2,87,30.24,10.0,West,3.5,-,N/A,,Clear,280,2012-10-12 08:35:00
4:55 AM,42.8,39.2,87,30.25,10.0,Calm,Calm,-,N/A,,Mostly Cloudy,0,2012-10-12 08:55:00
5:15 AM,44.6,41.0,87,30.25,10.0,South,3.5,-,N/A,,Overcast,180,2012-10-12 09:15:00
5:35 AM,48.2,39.2,71,30.25,10.0,SSW,3.5,-,N/A,,Overcast,200,2012-10-12 09:35:00
6:15 AM,46.4,41.0,81,30.25,10.0,East,3.5,-,N/A,,Overcast,90,2012-10-12 10:15:00
6:35 AM,46.4,42.8,87,30.24,10.0,SE,4.6,-,N/A,,Overcast,130,2012-10-12 10:35:00
6:55 AM,46.4,41.0,81,30.25,10.0,SSW,4.6,-,N/A,,Mostly Cloudy,210,2012-10-12 10:55:00
7:15 AM,46.4,41.0,81,30.27,10.0,North,3.5,-,N/A,,Overcast,10,2012-10-12 11:15:00
7:35 AM,46.4,42.8,87,30.27,10.0,Calm,Calm,-,N/A,,Overcast,0,2012-10-12 11:35:00
7:55 AM,46.4,41.0,81,30.28,10.0,Calm,Calm,-,N/A,,Overcast,0,2012-10-12 11:55:00
8:15 AM,46.4,42.8,87,30.28,10.0,Calm,Calm,-,N/A,,Overcast,0,2012-10-12 12:15:00
8:35 AM,46.4,44.6,93,30.28,10.0,Calm,Calm,-,N/A,,Overcast,0,2012-10-12 12:35:00
9:15 AM,50.0,44.6,82,30.30,10.0,Calm,Calm,-,N/A,,Overcast,0,2012-10-12 13:15:00
9:35 AM,50.0,44.6,82,30.31,10.0,Calm,Calm,-,N/A,,Overcast,0,2012-10-12 13:35:00
9:55 AM,51.8,44.6,76,30.30,10.0,Calm,Calm,-,N/A,,Overcast,0,2012-10-12 13:55:00
10:15 AM,51.8,42.8,71,30.31,10.0,Calm,Calm,-,N/A,,Overcast,0,2012-10-12 14:15:00
10:35 AM,53.6,44.6,72,30.32,10.0,Calm,Calm,-,N/A,,Overcast,0,2012-10-12 14:35:00
10:55 AM,53.6,44.6,72,30.32,10.0,Calm,Calm,-,N/A,,Overcast,0,2012-10-12 14:55:00
11:15 AM,55.4,42.8,63,30.32,10.0,ENE,3.5,-,N/A,,Overcast,70,2012-10-12 15:15:00
11:35 AM,57.2,42.8,59,30.32,10.0,East,4.6,-,N/A,,Overcast,80,2012-10-12 15:35:00
12:55 PM,59.0,39.2,48,30.32,10.0,East,5.8,-,N/A,,Overcast,90,2012-10-12 16:55:00
1:15 PM,59.0,41.0,51,30.32,10.0,ENE,4.6,-,N/A,,Overcast,70,2012-10-12 17:15:00
1:35 PM,60.8,41.0,48,30.32,10.0,NE,6.9,-,N/A,,Scattered Clouds,50,2012-10-12 17:35:00
1:55 PM,62.6,41.0,45,30.31,10.0,NE,6.9,-,N/A,,Clear,40,2012-10-12 17:55:00
2:35 PM,62.6,41.0,45,30.30,10.0,NE,4.6,-,N/A,,Clear,50,2012-10-12 18:35:00
3:15 PM,62.6,39.2,42,30.29,10.0,North,3.5,-,N/A,,Clear,10,2012-10-12 19:15:00
3:35 PM,64.4,41.0,42,30.29,10.0,North,4.6,-,N/A,,Clear,360,2012-10-12 19:35:00
4:15 PM,64.4,41.0,42,30.29,10.0,NE,3.5,-,N/A,,Clear,40,2012-10-12 20:15:00
4:35 PM,64.4,42.8,45,30.29,10.0,Calm,Calm,-,N/A,,Clear,0,2012-10-12 20:35:00
4:55 PM,64.4,41.0,42,30.29,10.0,Calm,Calm,-,N/A,,Clear,0,2012-10-12 20:55:00
5:35 PM,64.4,42.8,45,30.29,10.0,Calm,Calm,-,N/A,,Clear,0,2012-10-12 21:35:00
5:55 PM,64.4,41.0,42,30.29,10.0,North,3.5,-,N/A,,Clear,10,2012-10-12 21:55:00
6:15 PM,64.4,41.0,42,30.29,10.0,Calm,Calm,-,N/A,,Clear,0,2012-10-12 22:15:00
7:15 PM,60.8,41.0,48,30.30,10.0,Calm,Calm,-,N/A,,Clear,0,2012-10-12 23:15:00
7:35 PM,59.0,42.8,55,30.30,10.0,Calm,Calm,-,N/A,,Clear,0,2012-10-12 23:35:00
7:55 PM,57.2,42.8,59,30.30,10.0,NE,3.5,-,N/A,,Clear,40,2012-10-12 23:55:00
8:15 PM,57.2,42.8,59,30.30,10.0,Calm,Calm,-,N/A,,Clear,0,2012-10-13 00:15:00
8:35 PM,55.4,42.8,63,30.31,10.0,NE,3.5,-,N/A,,Clear,40,2012-10-13 00:35:00
8:55 PM,53.6,42.8,67,30.31,10.0,Calm,Calm,-,N/A,,Clear,0,2012-10-13 00:55:00
9:15 PM,53.6,42.8,67,30.32,10.0,Calm,Calm,-,N/A,,Clear,0,2012-10-13 01:15:00
9:35 PM,51.8,42.8,71,30.32,10.0,East,3.5,-,N/A,,Clear,80,2012-10-13 01:35:00
10:15 PM,50.0,42.8,76,30.33,7.0,East,3.5,-,N/A,,Clear,80,2012-10-13 02:15:00
10:35 PM,50.0,42.8,76,30.33,5.0,East,3.5,-,N/A,,Clear,80,2012-10-13 02:35:00
10:55 PM,50.0,42.8,76,30.33,7.0,Calm,Calm,-,N/A,,Clear,0,2012-10-13 02:55:00
11:15 PM,50.0,42.8,76,30.33,10.0,Calm,Calm,-,N/A,,Clear,0,2012-10-13 03:15:00
11:35 PM,50.0,42.8,76,30.33,7.0,ESE,3.5,-,N/A,,Clear,110,2012-10-13 03:35:00
11:55 PM,48.2,42.8,82,30.33,1.8,ESE,3.5,-,N/A,,Unknown,110,2012-10-13 03:55:00